STARLINK-1140 (45050 NORAD) Tracking and Keplerian Element Data

This shows tracking and keplerian element data for the satellite.

Feedback or suggestion? Click here.




ElementValue
Catalog45050
NameSTARLINK-1140
Epoch Orbit401
Epoch Day52.91667824
Epoch Year2020
RAAN121.1061
Inclination52.9972
Eccentricity0.0001328
Argument of Perigee71.1096
Mean Anonmoly335.5651
Mean Motion15.48219448
Decay Rate0.00041479
L11 45050U 20006G 20052.91667824 .00041479 00000-0 77887-3 0 9999
L22 45050 52.9972 121.1061 0001328 71.1096 335.5651 15.48219448 4019

Live tracking and technical data element details for STARLINK-1140 (NORAD 45050). STARLINK-1140 can be tracked NOW for your location showing map with azimuth and elevation plus other details from your city location.

Track the satellite on the map from your city or location and see movement details for azimuth, elevation, latitude, longitude, range, height, and movement on the map or in text.







IsCatalogInMostPopularTable: catalog: 45050, numindb: 7
Update: records affected: 1



GetName: 45050 STARLINK-1140

Hit Count: updated at: Wed, 26 Feb 2020 16:03:26 GMT